| time (UTC) | temp C | wind direction | speed KPH | gust KPH | rain 1hr cm | rain 24hr cm | rain mn cm | humidity % | barometer mb |
| 20260504081542 | 11 | 0 | 0.0 | 1.6 | 0.00 | 0.00 | 0.00 | 71 | 1015.8 |
| 20260504044539 | 12 | 0 | 0.0 | 1.6 | 0.00 | 0.00 | 0.00 | 64 | 1017.0 |
| 20260504043043 | 12 | 0 | 0.0 | 1.6 | 0.00 | 0.00 | 0.00 | 64 | 1017.0 |
| 20260504041541 | 12 | 104 | 0.0 | 1.6 | 0.00 | 0.00 | 0.00 | 65 | 1017.2 |
| 20260504040040 | 12 | 103 | 0.0 | 1.6 | 0.00 | 0.00 | 0.00 | 62 | 1017.2 |
| 20260504034542 | 12 | 0 | 0.0 | 1.6 | 0.00 | 0.00 | 0.00 | 60 | 1017.3 |
| 20260504033041 | 12 | 0 | 0.0 | 1.6 | 0.00 | 0.00 | 0.00 | 58 | 1017.4 |
| 20260504031536 | 12 | 0 | 0.0 | 0.0 | 0.00 | 0.00 | 0.00 | 59 | 1017.2 |
| 20260504030047 | 12 | 0 | 0.0 | 0.0 | 0.00 | 0.00 | 0.00 | 57 | 1017.5 |
| 20260504024539 | 13 | 0 | 0.0 | 0.0 | 0.00 | 0.00 | 0.00 | 53 | 1017.5 |
| 20260504023037 | 13 | 0 | 0.0 | 0.0 | 0.00 | 0.00 | 0.00 | 53 | 1017.5 |
| 20260504021546 | 13 | 0 | 0.0 | 0.0 | 0.00 | 0.00 | 0.00 | 53 | 1017.4 |
| 20260504020043 | 13 | 163 | 0.0 | 0.0 | 0.00 | 0.00 | 0.00 | 53 | 1017.0 |
| 20260504014550 | 13 | 0 | 0.0 | 0.0 | 0.00 | 0.00 | 0.00 | 51 | 1016.9 |
| 20260504013041 | 13 | 0 | 0.0 | 0.0 | 0.00 | 0.00 | 0.00 | 50 | 1016.7 |
| 20260504011537 | 13 | 0 | 0.0 | 0.0 | 0.00 | 0.00 | 0.00 | 51 | 1017.0 |
| 20260504010038 | 14 | 0 | 0.0 | 0.0 | 0.00 | 0.00 | 0.00 | 52 | 1017.0 |
| 20260504004537 | 15 | 0 | 0.0 | 0.0 | 0.00 | 0.00 | 0.00 | 49 | 1016.9 |
| 20260504003037 | 15 | 0 | 0.0 | 0.0 | 0.00 | 0.00 | 0.00 | 45 | 1017.0 |
| 20260504001544 | 16 | 0 | 0.0 | 0.0 | 0.00 | 0.00 | 0.00 | 45 | 1017.1 |
| 20260504000047 | 16 | 0 | 0.0 | 0.0 | 0.00 | 0.00 | 0.00 | 46 | 1017.3 |
| 20260503234540 | 16 | 164 | 0.0 | 0.0 | 0.00 | 0.00 | 0.00 | 44 | 1017.4 |
| 20260503233037 | 16 | 164 | 0.0 | 0.0 | 0.00 | 0.00 | 0.00 | 45 | 1017.3 |
| 20260503231537 | 17 | 0 | 0.0 | 1.6 | 0.00 | 0.00 | 0.00 | 44 | 1017.4 |
| 20260503230038 | 17 | 172 | 0.0 | 0.0 | 0.00 | 0.00 | 0.00 | 45 | 1017.4 |
| 20260503224539 | 17 | 170 | 0.0 | 1.6 | 0.00 | 0.00 | 0.00 | 44 | 1017.7 |
| 20260503223041 | 17 | 100 | 0.0 | 1.6 | 0.00 | 0.00 | 0.00 | 44 | 1017.9 |
| 20260503221539 | 17 | 0 | 0.0 | 3.2 | 0.00 | 0.00 | 0.00 | 42 | 1018.2 |
| 20260503220039 | 18 | 0 | 0.0 | 3.2 | 0.00 | 0.00 | 0.00 | 46 | 1018.3 |
| 20260503214542 | 19 | 50 | 0.0 | 4.8 | 0.00 | 0.00 | 0.00 | 40 | 1018.4 |
| 20260503213038 | 20 | 90 | 1.6 | 3.2 | 0.00 | 0.00 | 0.00 | 39 | 1018.7 |
| 20260503211548 | 19 | 112 | 0.0 | 3.2 | 0.00 | 0.00 | 0.00 | 41 | 1018.8 |
| 20260503210040 | 18 | 331 | 1.6 | 6.4 | 0.00 | 0.00 | 0.00 | 42 | 1018.9 |
| 20260503204539 | 18 | 103 | 0.0 | 6.4 | 0.00 | 0.00 | 0.00 | 43 | 1019.2 |
| 20260503203046 | 18 | 0 | 1.6 | 6.4 | 0.00 | 0.00 | 0.00 | 40 | 1019.6 |
| 20260503201538 | 17 | 325 | 1.6 | 4.8 | 0.00 | 0.00 | 0.00 | 42 | 1020.1 |
| 20260503200052 | 18 | 65 | 0.0 | 3.2 | 0.00 | 0.00 | 0.00 | 41 | 1020.1 |
| 20260503194537 | 17 | 87 | 1.6 | 6.4 | 0.00 | 0.00 | 0.00 | 41 | 1020.3 |
| 20260503193052 | 17 | 73 | 1.6 | 4.8 | 0.00 | 0.00 | 0.00 | 42 | 1020.5 |
| 20260503191544 | 17 | 103 | 1.6 | 6.4 | 0.00 | 0.00 | 0.00 | 40 | 1020.6 |
| 20260503190039 | 17 | 0 | 3.2 | 8.0 | 0.00 | 0.00 | 0.00 | 40 | 1020.8 |
| 20260503184546 | 16 | 23 | 1.6 | 6.4 | 0.00 | 0.00 | 0.00 | 42 | 1021.1 |
| 20260503183042 | 16 | 83 | 3.2 | 8.0 | 0.00 | 0.00 | 0.00 | 37 | 1021.4 |
| 20260503181550 | 17 | 69 | 3.2 | 11.3 | 0.00 | 0.00 | 0.00 | 39 | 1021.3 |
| 20260503180048 | 17 | 60 | 1.6 | 4.8 | 0.00 | 0.00 | 0.00 | 40 | 1021.4 |
| 20260503174546 | 16 | 324 | 4.8 | 8.0 | 0.00 | 0.00 | 0.00 | 41 | 1021.7 |
| 20260503173052 | 17 | 346 | 1.6 | 6.4 | 0.00 | 0.00 | 0.00 | 36 | 1022.0 |
| 20260503171537 | 16 | 64 | 0.0 | 4.8 | 0.00 | 0.00 | 0.00 | 44 | 1022.0 |